Temperature
27 25 24 25 25 26 26 26 26 26 27 26 25 25 25 25 25 24 24 24 23 23 23 23 23 22 22 22 21 21 21 20 20 20 20 19 19 19 19 19 18 18 18 18
25 25 26 28 28 27 27 26 26 26 27 26 25 25 25 25 24 24 24 24 24 23 23 23 22 22 22 22 21 21 21 20 20 20 20 19 19 19 19 19 18 18 18 18
25 26 28 29 28 28 27 26 26 26 26 25 25 24 24 24 25 25 24 24 24 23 23 22 22 22 22 22 21 21 21 20 20 20 20 19 19 19 19 19 18 18 18 18
26 28 29 28 28 28 27 28 28 27 25 23 25 23 23 23 23 24 24 23 23 23 23 23 23 22 22 22 22 21 21 20 20 20 20 19 19 19 19 18 18 18 18 18
26 28 28 28 29 29 28 29 28 27 25 23 23 22 22 22 23 23 23 23 23 23 23 23 23 23 22 22 22 21 21 20 20 20 19 19 19 19 18 18 18 18 18 18
27 28 29 29 30 30 29 28 26 24 22 23 23 22 22 22 23 23 24 24 23 23 23 23 23 22 22 22 21 21 21 20 20 20 19 19 19 19 18 18 18 18 18 18
26 28 29 29 29 28 27 25 23 24 22 22 22 22 22 23 24 24 23 24 23 23 23 22 22 22 22 22 22 21 21 20 20 19 19 19 19 18 18 18 18 18 18 18
25 26 28 29 28 27 27 24 23 24 23 22 22 22 22 24 24 24 24 24 23 23 23 23 22 22 22 22 22 21 21 20 20 19 19 19 19 18 18 18 18 18 18 17
25 25 28 29 30 28 27 25 24 22 22 22 22 22 23 23 23 23 24 23 23 23 23 23 23 22 22 22 22 21 21 20 20 19 19 19 18 18 18 18 18 17 17 17
25 26 27 28 29 28 27 26 23 22 22 22 23 22 22 22 22 22 22 22 22 23 23 22 22 22 22 22 21 21 21 20 20 19 19 19 18 18 18 18 17 17 17 17
25 24 25 26 27 27 27 26 23 21 21 21 22 22 23 22 22 22 22 22 22 22 23 22 22 22 22 22 21 21 21 20 20 19 19 19 18 18 18 17 17 17 17 17
24 22 23 25 26 27 27 26 23 23 22 20 21 21 24 22 22 22 22 22 22 22 22 22 22 22 22 21 21 21 21 20 20 19 19 19 18 18 18 17 17 17 16 16
24 22 22 23 24 25 26 26 24 21 20 20 21 22 23 22 22 22 22 22 22 22 22 22 22 22 22 21 21 21 20 20 20 19 19 18 18 18 17 17 17 16 16 16
25 21 22 23 23 24 25 26 25 22 21 21 21 22 22 22 21 21 22 22 21 21 21 21 21 21 21 21 20 20 20 20 19 19 19 18 18 17 17 17 17 16 16 16
23 23 24 24 25 25 26 26 25 24 22 22 22 22 22 21 21 22 22 21 21 20 20 20 20 20 21 20 20 20 20 19 19 19 18 18 18 17 17 17 17 16 16 16
21 23 24 24 25 25 25 25 25 25 24 23 22 22 21 21 22 21 21 21 20 20 20 20 20 20 20 20 19 19 19 19 19 19 18 18 17 17 17 17 16 16 16 16
21 21 22 22 24 24 23 24 24 24 23 23 22 21 21 20 20 20 20 20 20 19 19 19 19 19 19 19 19 19 19 19 18 18 18 17 17 17 17 16 16 16 16 15
21 20 19 20 23 23 22 23 24 23 23 22 22 21 21 20 20 21 21 21 20 20 20 19 20 19 19 19 19 19 19 18 18 18 17 17 17 16 16 16 16 16 15 15
20 20 19 19 20 22 23 24 24 22 21 22 21 21 20 20 20 19 20 21 20 20 20 20 20 19 19 19 18 18 18 18 18 18 17 17 16 16 16 16 16 15 15 15
19 18 19 19 21 21 22 23 24 22 20 21 21 20 20 19 18 18 19 20 20 20 20 19 19 19 19 18 18 18 18 17 17 17 17 16 16 16 16 16 15 15 15 14
19 19 19 19 19 20 21 23 23 21 20 21 21 20 20 18 18 19 19 19 19 19 19 19 18 18 18 18 17 17 17 17 17 17 16 16 16 16 15 15 15 15 14 14
18 18 18 17 19 19 21 21 20 19 21 21 21 21 20 19 19 19 19 18 18 18 18 18 18 17 17 17 17 17 16 16 16 16 16 15 15 15 15 15 14 14 14 14
17 17 16 17 17 19 21 21 21 21 21 21 20 20 20 19 18 18 18 18 18 18 18 17 17 17 17 16 16 16 16 16 16 15 15 15 15 14 14 14 14 14 14 13
17 17 16 16 17 19 20 21 21 21 21 21 20 20 20 19 18 18 18 17 17 17 17 17 17 16 16 16 16 16 15 15 15 15 15 14 14 14 14 14 14 13 13 13
17 16 16 16 17 18 19 20 20 21 20 20 20 20 19 19 18 18 17 17 17 17 16 16 16 16 16 15 15 15 15 15 14 14 14 14 14 14 14 13 13 13 13 13
16 16 16 16 17 16 18 20 20 20 20 19 19 19 18 18 18 18 17 17 16 16 16 16 15 15 15 15 15 14 14 14 14 14 13 13 13 13 13 13 13 13 13 12
Wind_Speed
3 1 5 8 8 8 5 4 4 4 2 4 4 4 4 5 6 7 7 8 9 9 8 8 9 9 8 7 7 6 6 5 4 3 3 3 3 3 3 3 4 5 4 4
3 6 11 9 7 6 6 3 2 1 1 3 2 2 3 4 5 8 8 8 9 8 7 8 8 8 9 8 7 6 6 5 4 3 3 3 3 2 2 2 4 5 5 5
7 9 7 5 7 5 5 6 5 4 2 2 3 2 2 1 3 6 7 8 7 11 11 10 9 8 9 8 8 7 6 5 4 4 4 4 4 3 3 3 3 3 5 5
6 8 7 6 7 5 6 7 7 6 4 1 3 2 5 2 1 4 6 7 8 9 10 11 11 10 9 8 7 7 6 5 5 5 5 6 5 3 2 1 2 3 4 4
7 6 6 7 9 6 7 5 3 3 3 2 1 3 6 1 3 5 8 9 9 9 11 11 12 11 9 9 8 7 6 5 5 5 6 6 4 3 2 3 3 3 2 3
9 8 6 8 8 5 3 2 4 5 4 1 3 3 4 4 6 6 7 9 10 10 9 9 9 9 8 8 8 7 6 5 5 5 5 6 5 4 4 3 3 2 1 2
7 7 6 4 4 5 1 4 4 5 4 3 2 2 6 6 4 5 7 8 9 10 10 9 9 10 10 10 9 8 7 5 5 5 4 5 5 5 5 4 3 2 2 1
4 7 5 3 6 5 3 8 7 4 4 3 2 2 5 3 1 3 6 7 8 9 10 11 11 11 11 11 10 9 8 6 5 5 4 4 4 4 3 3 3 3 2 2
6 6 6 4 4 5 2 2 8 7 3 2 2 2 4 2 2 3 5 7 6 7 8 9 10 10 11 11 10 10 9 7 6 5 4 4 4 4 4 3 3 2 2 2
7 4 7 5 2 1 5 5 6 5 4 1 1 2 4 4 2 3 5 6 6 6 7 7 8 9 9 10 9 9 9 8 6 5 5 5 4 4 4 4 3 3 2 2
5 4 6 4 1 2 1 2 5 4 6 6 3 5 5 8 6 6 6 6 7 7 8 8 7 8 8 8 9 9 8 7 6 6 5 4 4 3 4 3 3 3 2 2
4 5 3 6 6 3 4 4 5 4 2 5 5 5 3 5 6 5 5 5 5 6 6 7 7 7 8 8 8 8 8 7 7 6 5 4 4 4 4 3 2 3 3 2
5 6 1 7 7 5 2 1 4 6 5 5 5 4 2 2 3 5 6 5 5 6 6 6 7 7 7 7 7 7 7 7 6 6 5 4 4 4 4 3 3 3 3 2
5 5 7 7 7 3 2 2 1 6 4 3 5 5 2 3 4 4 6 6 6 6 7 7 6 6 6 7 6 6 6 6 6 6 5 4 3 3 3 3 3 3 3 3
5 4 3 4 3 1 1 2 1 3 6 6 6 6 7 7 8 6 7 7 7 6 6 6 6 6 5 6 5 5 5 5 6 6 5 4 4 3 3 3 2 2 3 3
4 4 2 2 2 4 3 3 1 1 4 6 6 3 4 5 6 6 7 8 7 5 5 5 5 6 6 5 4 5 5 5 5 6 4 3 4 3 3 3 2 2 2 2
2 4 3 2 3 4 3 2 1 2 2 6 6 5 5 7 7 8 8 8 7 6 6 5 5 5 5 5 6 6 5 5 5 5 4 3 3 4 3 3 3 3 2 2
4 3 4 1 3 1 5 2 6 7 4 2 4 7 8 8 6 5 7 9 7 7 6 5 5 5 4 4 4 4 4 5 5 4 4 3 3 3 2 2 2 2 2 3
6 6 4 4 3 2 3 1 3 5 2 1 5 7 9 10 9 5 3 6 8 7 7 6 6 5 5 4 4 5 4 3 4 4 3 3 4 3 3 2 2 2 2 2
5 6 5 4 3 4 5 4 2 8 1 2 4 8 9 7 5 2 1 5 6 6 6 6 6 5 4 3 4 5 4 3 2 3 4 3 3 3 3 3 2 2 2 2
4 4 3 3 3 4 5 4 3 4 5 3 5 8 7 5 6 6 5 5 5 6 6 6 6 5 3 3 5 5 4 2 2 1 2 1 2 3 3 2 1 1 0 1
2 1 1 3 3 5 5 3 4 5 3 5 6 6 7 7 8 7 7 5 5 6 6 7 6 4 3 4 6 4 2 1 1 2 2 1 1 2 2 2 1 1 1 0
2 4 4 4 5 5 0 5 5 6 6 4 5 6 9 9 7 7 6 5 4 4 5 5 5 4 3 3 5 4 1 1 2 3 2 2 3 2 2 2 2 1 1 1
3 2 3 2 1 1 3 5 5 5 6 6 7 8 9 8 8 7 6 5 4 4 4 4 6 5 4 3 4 4 3 3 3 3 3 2 2 2 1 2 1 1 1 2
3 2 3 2 1 3 4 4 5 6 8 9 8 8 8 9 8 7 6 5 4 4 4 5 5 5 4 3 3 3 3 4 4 3 2 2 1 1 1 1 0 1 2 3
2 2 3 3 4 3 2 1 4 7 8 8 8 7 7 8 8 7 6 5 4 4 5 4 4 3 3 3 2 2 3 4 4 2 1 1 1 1 1 1 1 3 2 1
Wind_Direction
279 88 249 244 225 217 229 247 270 263 220 131 157 172 185 178 146 147 158 163 162 165 165 159 155 148 141 135 131 128 120 119 114 107 103 98 93 83 69 68 73 83 85 87
337 266 245 244 252 231 232 237 268 327 122 122 155 185 199 163 164 165 166 172 172 160 158 158 155 152 148 145 139 130 129 128 124 129 128 122 118 104 95 61 55 68 76 80
226 249 253 249 253 249 249 210 205 172 128 70 107 355 306 213 173 176 175 170 172 171 166 167 163 164 155 151 149 145 137 131 126 118 106 97 79 62 54 52 55 57 73 73
246 252 258 263 260 237 258 230 195 183 141 199 149 209 281 239 224 200 184 174 179 176 171 173 170 166 163 155 146 136 134 127 122 118 118 121 120 114 121 111 86 67 65 71
253 249 248 259 255 237 241 234 179 160 127 86 36 138 280 280 217 212 190 180 179 174 175 175 172 165 159 153 145 138 131 125 123 124 130 126 122 125 113 97 90 77 59 65
255 257 232 237 259 246 244 25 37 55 76 64 242 156 259 239 225 211 188 173 175 169 161 163 161 153 152 148 142 140 134 129 126 126 129 131 132 127 117 113 113 100 74 62
288 281 260 240 280 303 60 87 28 2 11 259 249 137 243 248 225 182 178 173 170 165 159 156 159 163 158 152 150 146 140 134 136 131 132 138 141 138 141 147 144 131 110 89
240 282 264 222 196 215 219 138 157 195 211 268 326 244 267 259 185 148 153 157 161 162 167 168 170 170 163 159 156 153 150 148 148 143 141 138 137 139 141 145 146 149 154 155
201 253 276 252 210 162 183 186 167 140 134 104 292 296 322 344 72 131 143 139 153 161 166 164 167 165 163 163 162 159 156 152 155 153 140 131 135 136 141 142 141 143 141 126
177 245 301 308 8 295 168 157 91 108 138 158 293 257 218 235 216 171 165 162 165 156 160 158 159 161 164 163 159 155 156 159 159 153 150 146 141 137 134 133 135 139 138 115
157 171 305 350 189 228 56 79 104 119 148 149 193 263 221 192 195 177 174 172 170 159 164 163 159 159 155 153 155 155 157 151 151 154 149 143 145 142 134 137 146 151 141 132
166 138 256 273 268 213 161 161 139 144 213 146 152 257 265 184 179 165 172 162 149 156 158 156 149 146 147 151 159 162 163 161 164 159 149 150 149 144 145 153 159 152 149 157
142 119 89 335 335 350 38 132 138 134 122 142 151 236 267 179 160 155 152 149 140 141 140 140 138 144 150 149 153 159 161 162 157 148 147 150 154 156 165 171 164 154 147 146
130 119 158 193 227 253 304 315 87 108 131 172 189 194 212 197 179 154 137 132 128 131 136 141 146 147 147 146 151 158 156 149 145 142 147 154 167 172 180 174 158 150 149 147
107 136 178 210 219 137 306 284 220 149 166 165 188 186 204 192 182 166 143 131 121 117 124 138 145 145 139 138 143 148 144 142 145 144 155 174 177 162 153 155 154 146 150 157
75 119 75 351 26 60 18 328 233 141 138 142 142 188 213 169 145 131 129 124 120 125 130 128 126 132 135 137 138 138 141 148 146 149 163 171 164 157 157 160 151 141 142 142
66 104 93 275 320 44 344 311 92 74 90 148 168 196 150 122 129 139 143 136 134 136 130 133 136 137 144 150 148 150 156 146 140 148 158 166 171 172 181 173 153 163 162 145
133 110 124 127 55 202 243 211 111 94 60 87 133 149 143 134 128 121 139 143 138 139 144 145 139 134 137 140 142 145 145 146 145 154 166 171 169 175 172 157 170 185 170 164
142 137 119 121 160 244 286 284 147 123 43 50 128 131 127 116 91 66 86 135 148 152 153 150 141 140 134 141 137 130 130 147 154 164 176 182 177 175 168 171 196 186 171 180
71 101 119 129 153 212 249 283 154 109 97 306 127 134 139 120 115 187 166 115 113 113 124 129 128 120 120 140 132 121 129 131 171 188 189 182 175 172 186 200 198 178 168 189
27 36 116 155 185 249 270 288 76 117 208 213 146 141 135 137 161 161 128 100 100 106 116 123 118 121 140 133 113 114 131 160 204 184 165 169 172 180 182 172 140 133 132 202
147 122 170 141 163 248 294 51 127 184 177 142 134 130 124 119 114 117 117 112 103 100 105 113 120 130 132 121 119 118 130 173 124 101 94 95 118 142 124 121 108 112 136 178
142 182 176 175 203 235 306 130 150 139 121 120 120 124 127 120 116 122 126 128 120 112 119 123 127 127 115 117 124 131 148 125 112 94 95 109 97 81 106 130 141 143 145 141
334 32 102 84 358 26 72 95 93 104 109 111 119 123 122 124 128 128 125 123 121 117 124 132 130 127 124 121 128 132 133 125 114 106 103 106 111 95 70 79 115 154 180 178
278 27 72 72 327 54 44 77 96 86 96 101 102 113 125 126 124 131 131 131 128 118 110 119 132 133 130 116 114 123 130 130 126 123 117 111 118 130 95 66 100 188 226 207
288 148 140 207 229 164 212 151 101 103 105 107 107 103 116 127 134 132 135 137 132 123 115 112 114 119 119 109 101 122 140 130 130 127 132 156 167 174 145 124 24 14 2 348
Height
1486 1493 1497 1492 1489 1491 1493 1496 1499 1493 1484 1488 1492 1494 1492 1492 1494 1496 1497 1498 1499 1501 1503 1504 1505 1506 1507 1508 1509 1510 1510 1511 1511 1511 1511 1511 1511 1512 1512 1512 1512 1511 1511 1510
1492 1495 1484 1480 1480 1485 1489 1496 1497 1491 1485 1490 1495 1496 1492 1492 1492 1493 1495 1497 1499 1500 1502 1504 1505 1506 1507 1508 1509 1510 1511 1511 1512 1512 1512 1512 1513 1513 1513 1513 1513 1512 1511 1511
1493 1486 1477 1478 1481 1485 1487 1492 1493 1493 1489 1490 1496 1503 1497 1493 1491 1492 1493 1495 1497 1498 1500 1503 1505 1506 1507 1508 1509 1510 1511 1511 1512 1513 1513 1513 1513 1513 1513 1513 1513 1513 1512 1512
1485 1477 1477 1479 1480 1481 1490 1478 1480 1485 1496 1506 1501 1519 1503 1496 1493 1492 1493 1495 1496 1498 1500 1501 1502 1504 1506 1508 1509 1510 1511 1512 1512 1513 1513 1513 1513 1513 1513 1514 1514 1513 1513 1513
1483 1475 1477 1479 1475 1474 1478 1471 1477 1483 1494 1505 1506 1516 1510 1497 1497 1493 1492 1493 1495 1496 1498 1499 1501 1503 1505 1507 1509 1510 1511 1512 1512 1513 1513 1513 1513 1514 1514 1514 1514 1514 1514 1513
1475 1470 1470 1470 1466 1467 1469 1475 1481 1490 1502 1519 1510 1515 1515 1502 1495 1491 1490 1491 1493 1494 1496 1498 1500 1502 1504 1507 1508 1509 1510 1511 1512 1512 1513 1513 1513 1514 1514 1514 1514 1514 1514 1514
1480 1471 1465 1464 1469 1467 1472 1492 1513 1517 1526 1523 1508 1512 1510 1491 1487 1488 1489 1490 1491 1493 1495 1497 1500 1502 1503 1505 1507 1509 1510 1510 1512 1512 1513 1513 1514 1514 1514 1514 1514 1514 1513 1513
1492 1488 1467 1462 1467 1473 1474 1487 1514 1526 1530 1523 1511 1514 1502 1486 1485 1484 1485 1487 1490 1491 1493 1495 1497 1499 1502 1504 1506 1507 1509 1510 1511 1512 1513 1513 1514 1514 1514 1514 1514 1514 1513 1513
1488 1485 1462 1458 1457 1463 1474 1482 1484 1506 1514 1524 1518 1507 1496 1486 1485 1485 1486 1487 1488 1490 1490 1493 1496 1498 1501 1503 1504 1506 1508 1510 1511 1512 1512 1513 1513 1514 1514 1514 1514 1513 1513 1513
1472 1482 1468 1459 1457 1459 1464 1471 1489 1504 1522 1529 1521 1513 1508 1494 1490 1486 1486 1487 1487 1488 1489 1492 1494 1497 1500 1502 1504 1506 1507 1509 1510 1511 1512 1512 1513 1513 1513 1513 1513 1513 1512 1512
1466 1481 1477 1469 1469 1471 1469 1475 1485 1500 1506 1523 1530 1518 1487 1486 1486 1485 1485 1485 1486 1486 1488 1491 1493 1496 1499 1502 1503 1505 1506 1508 1509 1510 1511 1512 1512 1513 1513 1513 1513 1513 1512 1511
1463 1478 1487 1476 1463 1459 1464 1471 1483 1500 1505 1510 1519 1513 1480 1480 1481 1483 1484 1485 1486 1487 1488 1490 1493 1495 1498 1500 1502 1504 1505 1507 1508 1509 1510 1511 1512 1512 1512 1512 1512 1512 1511 1511
1461 1479 1495 1492 1481 1467 1467 1468 1473 1484 1499 1510 1516 1508 1480 1480 1481 1482 1483 1485 1485 1487 1489 1491 1493 1495 1497 1499 1501 1502 1504 1505 1507 1508 1509 1510 1510 1511 1511 1511 1511 1511 1510 1510
1454 1474 1487 1495 1489 1476 1474 1470 1470 1482 1499 1504 1501 1496 1487 1483 1482 1482 1483 1484 1486 1488 1489 1490 1492 1494 1496 1497 1499 1501 1502 1504 1505 1507 1508 1509 1509 1509 1509 1509 1509 1509 1509 1509
1456 1472 1471 1471 1467 1467 1469 1469 1469 1475 1482 1492 1491 1489 1485 1481 1480 1482 1483 1485 1487 1488 1489 1490 1492 1493 1495 1497 1498 1500 1501 1503 1505 1506 1506 1507 1507 1508 1508 1508 1508 1508 1508 1507
1459 1468 1469 1471 1465 1466 1469 1468 1468 1469 1472 1479 1482 1486 1478 1478 1479 1481 1484 1485 1487 1489 1491 1492 1492 1493 1494 1496 1498 1499 1500 1502 1503 1504 1505 1506 1506 1506 1506 1506 1506 1507 1506 1506
1463 1469 1478 1483 1471 1471 1482 1472 1470 1471 1471 1475 1483 1481 1477 1479 1480 1482 1483 1484 1486 1488 1490 1491 1491 1493 1494 1495 1496 1498 1499 1500 1501 1502 1503 1504 1505 1505 1505 1505 1505 1505 1504 1504
1463 1471 1481 1485 1481 1494 1483 1465 1465 1469 1472 1471 1473 1475 1475 1477 1480 1482 1482 1483 1486 1487 1488 1489 1491 1492 1493 1494 1495 1497 1498 1499 1500 1501 1502 1502 1503 1503 1503 1503 1503 1503 1503 1502
1455 1467 1480 1490 1493 1487 1475 1466 1466 1472 1479 1472 1473 1474 1476 1478 1480 1484 1484 1484 1485 1486 1486 1487 1489 1491 1492 1493 1494 1496 1497 1497 1498 1499 1500 1500 1501 1501 1501 1501 1501 1501 1500 1500
1456 1462 1477 1486 1490 1494 1479 1464 1462 1468 1483 1474 1472 1474 1476 1476 1485 1487 1484 1484 1484 1485 1486 1487 1489 1491 1492 1492 1493 1493 1494 1495 1496 1497 1498 1498 1499 1500 1499 1499 1499 1499 1499 1498
1470 1472 1478 1485 1490 1484 1468 1462 1462 1482 1484 1473 1472 1473 1474 1475 1479 1482 1482 1483 1483 1484 1486 1487 1488 1490 1491 1491 1492 1492 1493 1494 1495 1496 1496 1497 1498 1498 1498 1498 1498 1497 1497 1496
1475 1480 1482 1485 1491 1488 1464 1462 1469 1473 1469 1470 1471 1472 1473 1475 1477 1479 1480 1482 1483 1483 1485 1486 1487 1488 1489 1490 1491 1491 1492 1493 1494 1495 1495 1495 1496 1497 1496 1496 1496 1496 1495 1494
1471 1473 1476 1479 1480 1468 1463 1463 1465 1466 1468 1469 1470 1472 1473 1475 1477 1479 1481 1482 1483 1484 1484 1486 1487 1488 1489 1489 1490 1490 1492 1493 1493 1493 1494 1493 1494 1494 1494 1493 1493 1493 1492 1492
1468 1466 1470 1473 1470 1466 1465 1464 1465 1466 1467 1469 1470 1471 1473 1475 1477 1479 1481 1482 1483 1483 1484 1485 1486 1487 1488 1489 1490 1490 1490 1491 1492 1492 1492 1492 1492 1492 1492 1492 1492 1492 1491 1490
1469 1468 1471 1473 1470 1467 1466 1466 1467 1468 1468 1469 1471 1472 1474 1476 1478 1479 1481 1482 1483 1484 1484 1485 1486 1486 1487 1488 1489 1489 1490 1490 1491 1491 1491 1491 1491 1491 1491 1491 1490 1490 1489 1489
1467 1469 1472 1474 1469 1468 1468 1468 1468 1468 1469 1470 1472 1474 1475 1476 1478 1480 1481 1482 1483 1484 1485 1485 1485 1486 1487 1487 1488 1488 1488 1489 1489 1489 1489 1489 1489 1489 1489 1489 1489 1488 1488 1487